Dewpoint
58 59 59 62 62 65 68 68 71 73 71 72 72 73 72 72 72 72 75 74 74 73 77 75 74 75 75 72 72 73 73 70 72 70 69 70 67 71 73 73 72 72 71
57 60 60 58 61 65 68 70 72 73 72 72 72 71 72 73 73 70 74 73 73 75 73 76 71 75 75 73 75 76 74 72 69 71 68 67 65 69 71 71 70 69 70
56 60 61 59 63 66 68 71 72 74 73 74 72 75 75 76 74 72 73 72 73 73 75 77 76 76 76 71 72 74 76 72 71 72 71 67 65 68 70 70 69 71 68
55 60 60 60 59 66 68 70 72 74 73 74 74 73 69 69 69 71 72 72 73 73 72 75 77 77 76 76 75 73 74 73 70 72 65 73 71 68 67 67 68 68 67
50 59 60 61 60 64 67 70 73 74 74 73 74 72 71 70 71 72 72 73 73 74 72 75 76 77 76 74 75 73 72 73 73 72 68 70 69 72 69 63 65 63 66
48 59 61 62 62 62 64 68 73 74 74 75 74 73 71 72 73 72 73 73 73 72 73 72 76 77 76 76 75 74 73 75 75 74 71 70 67 66 65 65 65 63 63
46 56 61 61 62 63 64 67 73 73 74 74 74 74 73 73 73 73 74 74 71 71 70 73 75 73 75 76 77 74 74 75 75 75 73 72 69 68 69 68 66 65 65
42 50 59 61 63 64 65 67 71 73 74 74 74 74 74 72 72 75 74 72 71 71 74 72 72 74 75 76 76 75 75 74 75 75 75 73 72 70 69 69 68 65 66
44 51 57 61 64 64 66 68 71 73 73 73 74 75 75 74 72 73 73 72 73 71 73 72 72 73 75 75 75 74 75 75 71 74 75 75 72 71 69 70 67 69 65
48 52 53 57 63 64 66 67 70 72 73 72 73 73 74 75 74 75 73 72 72 75 72 73 72 73 74 75 75 73 74 73 74 71 74 75 74 72 70 71 70 69 68
48 52 53 56 61 64 65 67 68 71 72 72 73 73 73 74 74 73 74 74 73 75 75 74 73 73 74 74 75 74 74 75 74 74 74 74 74 72 72 72 72 72 70
48 50 54 57 59 63 63 66 68 68 71 72 73 73 74 73 73 73 74 75 73 75 74 75 74 74 74 75 75 74 72 73 73 73 73 73 72 74 74 73 73 72 72
50 49 52 58 60 62 64 64 68 68 70 73 72 73 73 73 72 73 73 74 74 74 74 74 73 74 75 75 74 74 73 73 74 74 74 73 73 74 73 74 72 72 72
55 51 51 56 61 65 68 69 68 68 71 72 72 73 72 73 72 74 74 75 74 73 72 73 74 74 75 74 74 74 74 74 73 74 74 75 73 74 74 73 74 73 72
50 53 57 66 67 72 72 72 71 71 71 73 72 73 74 74 75 75 75 74 76 75 74 72 73 74 73 71 73 73 73 74 73 73 75 73 73 72 72 73 74 74 72
62 63 61 63 67 69 74 73 74 76 74 74 72 75 76 76 75 76 77 76 75 75 75 75 74 73 71 67 67 71 72 73 73 73 75 75 73 72 69 68 69 71 73
66 67 68 68 70 66 72 72 74 75 77 78 76 76 76 76 76 76 76 76 75 76 75 75 74 74 74 68 66 67 71 73 73 73 74 72 68 71 74 69 70 69 68
63 66 68 70 71 69 68 72 73 76 77 77 77 77 77 76 76 76 76 76 76 75 75 75 75 75 74 67 65 66 72 72 72 73 73 74 74 74 73 74 74 73 73
61 60 60 67 72 72 72 73 74 75 75 75 76 77 77 76 76 75 76 76 76 76 75 75 75 75 75 64 64 66 72 71 72 73 73 73 73 66 65 72 71 71 70
61 59 59 60 65 70 73 73 72 73 73 74 75 75 75 76 76 76 77 77 77 76 75 76 76 72 75 66 62 65 71 71 70 72 73 68 70 61 62 71 71 69 69
61 60 58 61 66 67 70 72 73 73 75 75 75 75 75 74 75 76 77 77 77 76 76 76 76 74 74 74 61 60 72 71 70 70 69 70 62 60 61 63 70 67 63
58 58 57 59 63 66 68 69 71 74 75 76 75 75 75 76 76 76 76 76 75 75 71 67 66 68 72 63 61 58 59 64 70 69 70 71 59 59 59 60 60 56 58
54 53 55 59 62 65 68 70 73 71 72 72 72 72 72 73 75 74 72 71 69 70 67 65 64 66 69 69 59 59 59 60 63 70 66 60 58 56 57 56 57 57 59
52 50 55 58 61 63 65 68 70 72 73 73 72 72 73 72 73 72 69 68 68 67 66 65 64 65 64 63 65 66 64 61 64 64 65 63 62 60 59 60 57 59 61
53 55 57 59 62 64 64 66 67 68 70 71 71 72 70 70 70 71 70 70 67 64 64 67 65 63 62 61 60 62 64 66 65 66 66 64 63 61 60 60 62 61 63
54 55 58 59 61 63 64 67 66 65 67 68 64 64 62 67 69 69 70 59 56 52 52 53 61 64 56 51 50 49 51 53 53 62 64 62 61 61 61 62 62 63 63
Lifted_Index
-3 -2 -2 -2 -2 -3 -3 -4 -4 -4 -4 -4 -4 -3 -3 -3 -3 -3 -4 -3 -3 -3 -3 -3 -3 -3 -3 -3 -3 -3 -3 -3 -2 -2 -1 -1 -1 -2 -3 -3 -3 -3 -3
-3 -3 -2 -2 -3 -3 -4 -4 -5 -5 -4 -4 -4 -4 -4 -3 -3 -3 -4 -3 -3 -3 -3 -3 -3 -3 -3 -2 -2 -3 -3 -3 -2 -2 -2 -1 -1 -2 -3 -3 -3 -3 -3
-3 -3 -2 -2 -3 -3 -4 -4 -5 -5 -5 -5 -4 -4 -4 -4 -3 -3 -4 -4 -3 -3 -3 -3 -4 -4 -3 -2 -2 -3 -3 -3 -2 -2 -2 -2 -2 -2 -2 -3 -3 -3 -3
-3 -3 -3 -2 -3 -3 -4 -4 -5 -5 -5 -5 -4 -4 -4 -4 -4 -4 -4 -4 -4 -4 -4 -4 -4 -4 -4 -3 -3 -3 -3 -3 -2 -2 -2 -2 -3 -3 -2 -2 -2 -2 -3
-3 -3 -3 -3 -2 -3 -4 -4 -5 -5 -5 -5 -5 -5 -4 -4 -4 -4 -4 -4 -4 -4 -4 -4 -4 -4 -4 -4 -3 -3 -3 -3 -3 -2 -2 -2 -2 -2 -2 -1 -1 -1 -1
-3 -3 -4 -3 -3 -3 -3 -4 -5 -6 -5 -5 -5 -5 -5 -4 -4 -4 -4 -4 -4 -4 -4 -4 -4 -4 -4 -4 -3 -3 -3 -3 -3 -3 -2 -2 -2 -2 -1 -1 -1 -1 -1
-2 -3 -4 -4 -4 -3 -3 -4 -5 -6 -6 -6 -6 -5 -5 -5 -5 -4 -4 -4 -4 -4 -4 -4 -4 -4 -4 -4 -4 -4 -4 -3 -3 -3 -3 -3 -3 -2 -2 -2 -1 -1 -1
-2 -3 -4 -5 -4 -4 -4 -4 -5 -6 -6 -6 -6 -6 -6 -5 -5 -5 -4 -4 -4 -4 -4 -4 -4 -4 -5 -5 -4 -4 -4 -4 -4 -4 -4 -4 -4 -3 -3 -2 -2 -2 -2
-2 -3 -4 -5 -5 -5 -5 -5 -5 -6 -6 -6 -6 -6 -6 -6 -5 -5 -5 -4 -4 -4 -4 -4 -4 -5 -5 -5 -5 -4 -4 -4 -4 -4 -4 -4 -4 -4 -3 -3 -2 -2 -2
-2 -3 -4 -5 -5 -6 -5 -5 -6 -6 -6 -6 -6 -6 -6 -6 -6 -5 -5 -5 -5 -5 -4 -5 -5 -5 -5 -5 -5 -4 -4 -4 -4 -4 -4 -4 -4 -4 -4 -4 -3 -3 -3
-2 -3 -3 -4 -5 -6 -6 -6 -6 -6 -6 -6 -6 -7 -7 -6 -6 -6 -5 -5 -5 -5 -5 -5 -5 -5 -5 -5 -5 -4 -4 -4 -4 -4 -4 -4 -4 -5 -5 -4 -4 -4 -3
-2 -2 -3 -4 -5 -6 -6 -7 -7 -7 -7 -7 -7 -7 -7 -7 -6 -6 -6 -5 -5 -5 -5 -5 -5 -5 -5 -5 -5 -4 -4 -4 -4 -4 -4 -4 -4 -5 -5 -5 -4 -4 -4
-2 -3 -3 -4 -5 -6 -7 -7 -7 -7 -7 -7 -7 -7 -7 -7 -7 -6 -6 -6 -5 -5 -5 -5 -5 -5 -5 -5 -5 -5 -4 -4 -4 -5 -5 -5 -5 -5 -5 -5 -4 -4 -4
-3 -3 -4 -5 -6 -7 -8 -8 -8 -8 -8 -8 -8 -8 -8 -7 -7 -7 -6 -6 -6 -5 -5 -5 -5 -5 -6 -5 -5 -5 -5 -5 -5 -5 -5 -5 -5 -5 -5 -5 -5 -5 -5
-4 -5 -5 -6 -7 -8 -9 -9 -9 -9 -9 -9 -9 -9 -9 -8 -8 -8 -7 -7 -6 -6 -5 -5 -5 -6 -6 -5 -5 -5 -5 -6 -6 -6 -6 -6 -6 -5 -5 -5 -5 -5 -5
-7 -7 -7 -8 -8 -9 -9 -10 -10 -10 -10 -10 -10 -10 -10 -9 -9 -9 -8 -8 -7 -7 -6 -6 -6 -6 -5 -5 -5 -5 -5 -6 -6 -6 -6 -6 -6 -5 -5 -5 -5 -4 -4
-9 -9 -9 -9 -9 -9 -9 -10 -10 -10 -10 -11 -11 -10 -10 -10 -10 -9 -9 -9 -8 -8 -8 -7 -7 -6 -6 -5 -5 -5 -5 -5 -6 -6 -6 -6 -5 -5 -5 -5 -5 -4 -4
-7 -7 -8 -9 -9 -9 -9 -10 -10 -11 -11 -11 -11 -11 -11 -10 -10 -10 -10 -10 -9 -9 -9 -8 -8 -7 -7 -6 -5 -5 -5 -5 -6 -6 -6 -6 -5 -5 -5 -5 -5 -5 -5
-5 -5 -6 -7 -9 -9 -9 -10 -10 -10 -10 -10 -10 -11 -11 -10 -10 -10 -10 -10 -10 -10 -9 -9 -9 -8 -8 -7 -6 -6 -5 -5 -6 -6 -6 -6 -6 -6 -5 -5 -5 -4 -4
-3 -3 -4 -5 -7 -8 -9 -10 -10 -10 -10 -10 -10 -10 -10 -10 -10 -10 -10 -10 -10 -10 -9 -9 -9 -9 -8 -8 -7 -6 -6 -6 -6 -6 -6 -6 -6 -6 -6 -5 -4 -3 -3
-2 -2 -3 -4 -5 -7 -8 -9 -9 -10 -10 -10 -10 -10 -9 -9 -10 -10 -10 -10 -9 -9 -9 -8 -8 -8 -8 -8 -8 -7 -7 -6 -6 -6 -6 -6 -6 -6 -5 -5 -4 -2 -2
-1 -2 -2 -3 -4 -5 -7 -8 -8 -9 -9 -10 -9 -9 -9 -9 -9 -9 -9 -9 -8 -8 -7 -6 -5 -5 -6 -6 -7 -7 -6 -6 -6 -6 -6 -6 -6 -6 -5 -4 -3 -1 1
-1 -1 -1 -2 -3 -4 -5 -6 -7 -8 -8 -9 -9 -8 -8 -8 -8 -8 -7 -6 -6 -6 -5 -4 -3 -3 -3 -4 -5 -5 -5 -5 -5 -5 -5 -6 -5 -5 -4 -3 -1 2 3
-0 -1 -1 -2 -2 -3 -3 -4 -6 -7 -7 -8 -8 -8 -8 -8 -7 -7 -6 -5 -4 -3 -3 -3 -2 -2 -1 -2 -1 -2 -2 -2 -3 -3 -4 -4 -3 -2 -2 -1 1 3 4
-0 -0 -1 -2 -3 -3 -3 -3 -4 -5 -6 -7 -7 -7 -7 -7 -7 -7 -6 -5 -4 -3 -2 -2 -2 -1 0 0 0 0 0 -0 -1 -2 -2 -2 -1 -0 0 1 1 2 3
-0 -0 -1 -2 -3 -3 -3 -3 -3 -3 -5 -6 -6 -6 -6 -6 -7 -7 -7 -5 -4 -3 -2 -1 -1 -1 0 0 0 0 1 1 0 -1 -1 -1 0 1 1 1 0 1 2